Change the Weather History Date:

Thursday, April 10, 2014

  Actual Average Record
Temperature  
Mean Temperature 83 °F -  
Max Temperature 98 °F - - ()
Min Temperature 68 °F - - ()
Cooling Degree Days 18    
Growing Degree Days 33 (Base 50)    
Moisture  
Dew Point 31 °F    
Average Humidity 14    
Maximum Humidity 33    
Minimum Humidity 4    
Precipitation  
Precipitation 0.00 in - - ()
Sea Level Pressure  
Sea Level Pressure 29.89 in    
Wind  
Wind Speed 4 mph ()    
Max Wind Speed 10 mph    
Max Gust Speed 21 mph    
Visibility 2.4 miles    
Events      
T = Trace of Precipitation, MM = Missing Value Source: Averaged Metar Reports

Daily Weather History Graph

Daily Weather History Graph

Search for Another Location

Airport or City:

Trip Planner

Search our weather history database for the weather conditions in past years. The results will help you decide how hot, cold, wet, or windy it might be!

Date:

Astronomy

Apr. 10, 2014 Rise Set
Actual Time 6:08 AM IST 6:48 PM IST
Civil Twilight 5:44 AM IST 7:11 PM IST
Nautical Twilight 5:17 AM IST 7:39 PM IST
Astronomical Twilight 4:49 AM IST 8:07 PM IST
Moon 2:30 PM IST (4/10) 2:49 AM IST (4/10)
Length of Visible Light 13h 26m
Length of Day
12h 39m
Waxing Gibbous, 76% of the Moon is Illuminated
Apr 10
Waxing Gibbous
Apr 15
Full
Apr 22
Last Quarter
Apr 29
New
May 7
First Quarter

Hourly Weather History & Observations

Time (IST) Temp. Dew Point Humidity Pressure Visibility Wind Dir Wind Speed Gust Speed Precip Events Conditions
12:00 AM 80.6 °F 26.6 °F 14% 29.92 in 2.2 mi NNE 4.6 mph - N/A   Haze
1:00 AM 75.2 °F 32.0 °F 21% 29.92 in 2.2 mi East 3.5 mph - N/A   Haze
2:30 AM 75 °F 35 °F 14% 29.85 in 1 mi NNE 1.2 mph - -   Haze
3:00 AM 75.2 °F 33.8 °F 22% 29.92 in 2.2 mi NE 4.6 mph - N/A   Haze
4:00 AM 71.6 °F 35.6 °F 27% 29.89 in 2.2 mi Calm Calm - N/A   Haze
5:00 AM 69.8 °F 37.4 °F 31% 29.92 in 2.2 mi Calm Calm - N/A   Haze
5:30 AM 71 °F 40 °F 22% 29.86 in 1 mi Calm Calm - -   Haze
6:00 AM 71.6 °F 41.0 °F 33% 29.95 in 2.2 mi Calm Calm - N/A   Haze
8:00 AM 77.0 °F 44.6 °F 32% 29.98 in 2.2 mi Variable 3.5 mph - N/A   Haze
8:30 AM 80 °F 47 °F 22% 29.90 in 2 mi SE 3.5 mph - -   Haze
9:00 AM 82.4 °F 41.0 °F 23% 29.98 in 2.5 mi SSE 3.5 mph - N/A   Haze
11:00 AM 87.8 °F 37.4 °F 17% 29.98 in 3.1 mi South 6.9 mph - N/A   Haze
11:30 AM 88 °F 31 °F 6% 29.90 in 2 mi SW 6.9 mph - -   Haze
12:00 PM 91.4 °F 32.0 °F 12% 29.98 in 3.1 mi WSW 8.1 mph - N/A   Haze
1:00 PM 93.2 °F 30.2 °F 11% 29.95 in 3.1 mi Variable 6.9 mph - N/A   Haze
2:00 PM 93.2 °F 28.4 °F 10% 29.92 in 3.1 mi WNW 10.4 mph - N/A   Haze
2:30 PM 94 °F 26 °F 4% 29.80 in 2 mi West 9.2 mph - -   Haze
3:00 PM 93.2 °F 23.0 °F 8% 29.89 in 3.1 mi West 8.1 mph - N/A   Haze
3:30 PM 95.0 °F 24.8 °F 8% 29.89 in 3.1 mi WSW 9.2 mph - N/A   Haze
4:00 PM 95.0 °F 21.2 °F 7% 29.86 in 3.1 mi West 9.2 mph 20.7 mph N/A   Haze
4:30 PM 95.0 °F 23.0 °F 8% 29.86 in 3.1 mi NW 9.2 mph - N/A   Haze
5:00 PM 95.0 °F 21.2 °F 7% 29.86 in 3.1 mi WNW 5.8 mph - N/A   Haze
5:30 PM 94 °F 24 °F 4% 29.77 in 2 mi NW 3.5 mph - -   Haze
5:30 PM 93.2 °F 21.2 °F 7% 29.86 in 3.1 mi NNW 5.8 mph - N/A   Haze
6:00 PM 93.2 °F 21.2 °F 7% 29.86 in 3.1 mi Variable 3.5 mph - N/A   Haze
6:30 PM 93.2 °F 23.0 °F 8% 29.86 in 2.5 mi NNW 5.8 mph - N/A   Haze
7:00 PM 91.4 °F 24.8 °F 9% 29.86 in 2.2 mi Variable 4.6 mph - N/A   Haze
8:00 PM 89.6 °F 28.4 °F 11% 29.89 in 2.2 mi Variable 3.5 mph - N/A   Haze
8:30 PM 86 °F 34 °F 8% 29.81 in 2 mi Calm Calm - -   Haze
10:00 PM 86.0 °F 32.0 °F 14% 29.92 in 1.9 mi NE 4.6 mph - N/A   Haze
11:00 PM 78.8 °F 35.6 °F 21% 29.92 in 1.9 mi Calm Calm - N/A   Haze
11:30 PM 80 °F 36 °F 12% 29.83 in 1 mi ENE 5.8 mph - -   Haze